ftp/pub/mcmurdo/building69/2007/March/070324.txt
3/24/07
Time Wind Dir Wind Spd Hum In Temp In Temp Raw Barom
° kts % °C °C mb
0:00 38 3 4 18.2 -12.7 970.04
0:01 356 4 4 18.2 -12.7 970.04
0:02 348 3 4 18.2 -12.8 970.11
0:03 358 3 4 18.1 -12.7 969.97
0:04 10 3 4 18.1 -12.8 970.00
0:05 23 2 4 18.2 -12.8 969.97
0:06 357 3 4 18.4 -12.8 969.94
0:07 356 3 4 18.6 -12.8 969.94
0:08 352 3 4 18.9 -12.8 969.94
0:09 7 5 4 18.9 -12.8 969.94
0:10 5 2 4 18.9 -12.8 970.04
0:11 359 6 4 18.9 -12.8 970.00
0:12 2 4 4 18.8 -12.8 970.04
0:13 33 2 4 18.8 -12.8 969.97
0:14 37 4 4 18.8 -12.7 969.97
0:15 19 2 4 18.7 -12.7 969.94
0:16 17 4 4 18.7 -12.7 970.07
0:17 12 5 4 18.7 -12.7 969.87
0:18 9 3 4 18.7 -12.7 970.00
0:19 359 2 4 18.6 -12.7 969.94
0:20 16 3 4 18.6 -12.7 970.00
0:21 4 3 4 18.6 -12.7 970.00
0:22 5 4 4 18.6 -12.8 969.94
0:23 28 3 4 18.6 -12.7 969.83
0:24 6 4 4 18.5 -12.8 969.90
0:25 12 2 4 18.5 -12.8 969.90
0:26 37 4 4 18.4 -12.8 969.90
0:27 353 7 4 18.4 -12.7 969.90
0:28 5 3 4 18.4 -12.8 970.00
0:29 7 3 4 18.4 -12.8 970.00
0:30 43 3 4 18.4 -12.8 970.00
0:31 25 3 4 18.4 -12.7 969.90
0:32 358 3 4 18.3 -12.7 969.87
0:33 359 5 4 18.3 -12.7 969.94
0:34 13 3 4 18.3 -12.8 969.97
0:35 7 3 4 18.3 -12.8 969.90
0:36 21 3 4 18.3 -12.7 969.90
0:37 18 3 4 18.3 -12.8 969.90
0:38 4 4 4 18.2 -12.8 969.94
0:39 6 3 4 18.2 -12.8 969.94
0:40 16 5 4 18.2 -12.8 969.97
0:41 40 3 4 18.2 -12.8 969.94
0:42 2 9 4 18.2 -12.8 969.90
0:43 21 2 4 18.1 -12.8 969.83
0:44 14 5 4 18.1 -12.8 969.94
0:45 26 3 4 18.1 -12.8 969.90
0:46 14 4 4 18.1 -12.8 969.77
0:47 17 5 4 18.1 -12.8 969.90
0:48 25 3 4 18.1 -12.8 969.77
0:49 16 5 4 18.0 -12.8 969.83
0:50 20 3 4 18.1 -12.7 969.77
0:51 28 3 4 18.2 -12.7 969.83
0:52 355 5 4 18.4 -12.7 969.80
0:53 0 3 4 18.7 -12.7 969.67
0:54 34 3 4 18.8 -12.8 969.80
0:55 12 5 4 18.8 -12.8 969.70
0:56 12 3 4 18.8 -12.8 969.56
0:57 6 3 4 18.8 -12.7 969.63
0:58 358 2 4 18.8 -12.7 969.73
0:59 15 5 4 18.7 -12.7 969.83
1:00 9 4 4 18.7 -12.8 969.87
1:01 6 3 4 18.7 -12.8 969.87
1:02 26 2 4 18.7 -12.8 969.83
1:03 16 3 4 18.7 -12.9 969.80
1:04 28 3 4 18.6 -12.8 969.77
1:05 17 3 4 18.6 -12.8 969.73
1:06 353 8 4 18.6 -12.8 969.73
1:07 18 5 4 18.6 -12.7 969.80
1:08 358 4 4 18.6 -12.7 969.77
1:09 17 3 4 18.6 -12.7 969.73
1:10 32 4 4 18.5 -12.7 969.67
1:11 2 3 4 18.5 -12.7 969.70
1:12 26 3 4 18.5 -12.7 969.73
1:13 34 3 4 18.5 -12.7 969.73
1:14 359 3 4 18.4 -12.7 969.70
1:15 12 3 4 18.4 -12.6 969.70
1:16 13 3 4 18.4 -12.6 969.77
1:17 22 4 4 18.4 -12.6 969.80
1:18 2 1 4 18.3 -12.7 969.77
1:19 17 3 4 18.3 -12.7 969.80
1:20 3 3 4 18.3 -12.7 969.73
1:21 354 4 4 18.3 -12.8 969.77
1:22 2 3 4 18.3 -12.7 969.80
1:23 19 3 4 18.3 -12.7 969.77
1:24 24 3 4 18.3 -12.7 969.77
1:25 36 3 4 18.3 -12.6 969.77
1:26 15 3 4 18.3 -12.7 969.63
1:27 354 6 4 18.2 -12.7 969.70
1:28 19 4 4 18.2 -12.7 969.77
1:29 9 5 4 18.2 -12.7 969.67
1:30 359 3 4 18.2 -12.7 969.73
1:31 7 3 4 18.1 -12.7 969.77
1:32 5 4 4 18.1 -12.7 969.73
1:33 18 4 4 18.1 -12.7 969.80
1:34 21 5 4 18.2 -12.7 969.67
1:35 5 4 4 18.3 -12.6 969.73
1:36 5 7 4 18.6 -12.6 969.63
1:37 11 3 4 18.8 -12.6 969.70
1:38 358 8 4 18.8 -12.6 969.67
1:39 357 7 4 18.7 -12.6 969.73
1:40 359 7 4 18.7 -12.6 969.73
1:41 357 4 4 18.6 -12.7 969.80
1:42 332 10 4 18.6 -12.6 969.77
1:43 9 5 4 18.5 -12.7 969.73
1:44 359 6 4 18.4 -12.7 969.80
1:45 2 7 4 18.4 -12.7 969.80
1:46 359 5 4 18.4 -12.7 969.77
1:47 5 10 4 18.3 -12.7 969.80
1:48 3 3 4 18.3 -12.7 969.77
1:49 16 4 4 18.2 -12.7 969.77
1:50 5 7 4 18.2 -12.6 969.73
1:51 14 7 4 18.2 -12.7 969.73
1:52 355 8 4 18.1 -12.7 969.77
1:53 357 9 4 18.1 -12.6 969.80
1:54 359 5 4 18.0 -12.7 969.73
1:55 1 7 4 18.0 -12.7 969.80
1:56 358 5 4 17.9 -12.7 969.67
1:57 2 8 4 17.9 -12.7 969.67
1:58 358 7 4 17.9 -12.7 969.73
1:59 348 6 4 17.8 -12.7 969.70
2:00 359 7 4 17.8 -12.7 969.60
2:01 357 7 4 17.8 -12.7 969.73
2:02 7 5 4 17.7 -12.8 969.67
2:03 0 7 4 17.7 -12.8 969.67
2:04 10 8 4 17.7 -12.8 969.63
2:05 8 6 4 17.6 -12.8 969.60
2:06 38 3 4 17.6 -12.8 969.63
2:07 6 4 4 17.6 -12.8 969.53
2:08 1 5 4 17.6 -12.8 969.56
2:09 2 3 4 17.6 -12.9 969.39
2:10 6 3 4 17.6 -12.8 969.56
2:11 8 4 4 17.6 -12.8 969.46
2:12 14 4 4 17.6 -12.8 969.60
2:13 0 6 4 17.6 -12.8 969.53
2:14 5 4 4 17.6 -12.8 969.43
2:15 16 5 4 17.7 -12.8 969.53
2:16 16 3 4 17.8 -12.8 969.43
2:17 0 3 5 18.1 -12.8 969.46
2:18 0 3 4 18.3 -12.8 969.39
2:19 358 6 4 18.4 -12.9 969.43
2:20 2 5 5 18.4 -12.9 969.46
2:21 354 5 5 18.3 -12.9 969.46
2:22 352 6 4 18.3 -12.9 969.43
2:23 349 6 4 18.3 -12.9 969.39
2:24 356 5 4 18.2 -12.9 969.39
2:25 353 5 4 18.2 -12.9 969.46
2:26 356 6 4 18.1 -12.9 969.53
2:27 354 2 4 18.1 -12.9 969.39
2:28 1 3 4 18.1 -12.9 969.46
2:29 357 4 4 18.1 -13.0 969.36
2:30 359 4 4 18.0 -13.0 969.36
2:31 0 3 4 18.0 -12.9 969.39
2:32 359 3 4 18.0 -12.9 969.39
2:33 13 1 4 17.9 -12.9 969.43
2:34 34 1 4 17.9 -12.9 969.33
2:35 34 3 4 17.9 -12.9 969.33
2:36 33 1 4 18.0 -13.0 969.29
2:37 343 4 4 17.9 -13.0 969.39
2:38 346 5 4 17.9 -12.9 969.26
2:39 333 5 4 17.9 -12.9 969.29
2:40 323 5 4 17.9 -12.9 969.29
2:41 325 5 4 17.9 -12.9 969.29
2:42 328 4 4 17.9 -12.8 969.23
2:43 327 4 4 17.9 -12.9 969.26
2:44 340 3 4 17.8 -12.9 969.23
2:45 353 2 4 17.8 -12.9 969.19
2:46 0 1 4 17.8 -12.9 969.26
2:47 34 3 4 17.8 -12.9 969.29
2:48 353 5 4 17.8 -12.9 969.26
2:49 344 5 4 17.8 -13.0 969.29
2:50 339 3 4 17.8 -12.9 969.23
2:51 332 3 4 17.8 -12.9 969.33
2:52 315 3 4 17.8 -12.9 969.12
2:53 326 3 4 17.8 -12.9 969.26
2:54 315 4 4 17.8 -12.9 969.16
2:55 314 5 4 17.7 -12.9 969.09
2:56 318 3 4 17.8 -12.9 969.16
2:57 318 3 4 17.9 -12.9 969.06
2:58 318 3 5 18.1 -13.0 969.06
2:59 318 3 5 18.3 -13.0 968.99
3:00 318 3 5 18.6 -13.1 969.12
3:01 318 3 5 18.6 -13.1 969.02
3:02 318 1 4 18.6 -13.1 969.12
3:03 318 1 4 18.6 -13.1 969.02
3:04 318 2 5 18.6 -13.1 969.02
3:05 318 1 5 18.6 -13.1 969.06
3:06 318 1 5 18.5 -13.1 968.99
3:07 318 0 4 18.5 -13.1 969.02
3:08 318 1 4 18.5 -13.1 969.02
3:09 318 1 4 18.5 -13.1 969.02
3:10 318 1 4 18.4 -13.1 969.09
3:11 318 1 4 18.4 -13.1 969.09
3:12 318 1 4 18.4 -13.1 969.06
3:13 318 1 4 18.4 -13.1 969.16
3:14 318 0 4 18.4 -13.1 969.06
3:15 318 1 4 18.4 -13.2 969.02
3:16 318 0 4 18.4 -13.2 969.06
3:17 318 0 4 18.4 -13.2 968.99
3:18 318 0 4 18.4 -13.2 969.09
3:19 318 0 4 18.4 -13.1 969.09
3:20 318 0 4 18.4 -13.1 969.06
3:21 318 0 4 18.4 -13.1 969.02
3:22 318 0 4 18.4 -13.1 969.02
3:23 318 1 4 18.3 -13.1 969.09
3:24 318 2 4 18.3 -13.1 969.06
3:25 318 3 4 18.3 -13.1 969.12
3:26 318 3 4 18.3 -13.1 969.19
3:27 318 3 4 18.3 -13.1 969.09
3:28 318 3 4 18.3 -13.1 969.06
3:29 318 2 4 18.3 -13.1 969.09
3:30 318 2 4 18.3 -13.0 969.06
3:31 318 2 4 18.3 -13.0 969.02
3:32 318 2 4 18.3 -13.1 969.09
3:33 318 2 4 18.3 -13.1 969.12
3:34 318 1 4 18.3 -13.1 969.09
3:35 318 1 4 18.3 -13.1 969.12
3:36 318 2 4 18.3 -13.1 969.09
3:37 318 1 4 18.3 -13.1 969.12
3:38 318 0 4 18.2 -13.1 969.06
3:39 318 1 4 18.2 -13.1 969.02
3:40 318 1 4 18.2 -13.1 969.06
3:41 318 0 4 18.3 -13.1 968.99
3:42 318 0 4 18.6 -13.1 969.06
3:43 318 0 4 18.8 -13.1 968.95
3:44 318 0 4 19.0 -13.1 968.89
3:45 318 0 4 19.1 -13.1 968.89
3:46 318 0 4 19.1 -13.2 968.95
3:47 318 0 4 19.1 -13.1 969.02
3:48 318 0 4 19.1 -13.1 968.89
3:49 318 0 4 19.0 -13.2 968.99
3:50 318 0 4 19.0 -13.2 969.12
3:51 318 0 4 18.9 -13.2 968.92
3:52 318 1 4 18.9 -13.2 968.92
3:53 318 2 4 18.9 -13.2 969.06
3:54 318 2 4 18.9 -13.2 969.06
3:55 318 1 4 18.9 -13.1 969.02
3:56 318 2 4 18.9 -13.1 968.95
3:57 318 2 4 18.8 -13.1 968.92
3:58 318 2 4 18.8 -13.1 969.02
3:59 318 2 4 18.8 -13.2 968.95
4:00 318 1 4 18.8 -13.1 968.92
4:01 318 2 4 18.8 -13.1 968.89
4:02 318 2 4 18.8 -13.2 968.89
4:03 318 1 4 18.8 -13.1 968.99
4:04 318 2 4 18.8 -13.1 968.82
4:05 318 2 4 18.8 -13.1 968.95
4:06 318 1 4 18.7 -13.1 968.89
4:07 318 2 4 18.7 -13.1 968.89
4:08 318 2 4 18.7 -13.1 968.92
4:09 318 1 4 18.7 -13.1 968.95
4:10 318 1 4 18.7 -13.1 968.82
4:11 318 0 4 18.7 -13.1 968.89
4:12 318 0 4 18.7 -13.2 968.92
4:13 318 0 4 18.7 -13.2 968.92
4:14 318 3 4 18.7 -13.1 968.85
4:15 318 1 4 18.7 -13.1 968.78
4:16 318 0 4 18.6 -13.2 968.92
4:17 318 0 4 18.6 -13.2 968.85
4:18 318 0 4 18.6 -13.2 968.82
4:19 318 0 4 18.6 -13.2 968.85
4:20 318 1 4 18.6 -13.2 968.82
4:21 318 1 4 18.6 -13.2 968.95
4:22 318 0 4 18.6 -13.2 968.82
4:23 318 1 4 18.6 -13.2 968.92
4:24 318 0 4 18.6 -13.3 968.89
4:25 318 0 4 18.6 -13.3 968.99
4:26 318 0 4 18.6 -13.3 968.78
4:27 318 1 4 18.6 -13.2 968.89
4:28 318 1 4 18.7 -13.2 968.85
4:29 318 1 4 18.9 -13.2 968.78
4:30 318 1 4 19.1 -13.2 968.75
4:31 318 1 4 19.4 -13.1 968.72
4:32 318 1 4 19.5 -13.1 968.75
4:33 318 2 4 19.5 -13.2 968.72
4:34 318 1 4 19.4 -13.1 968.78
4:35 318 1 4 19.4 -13.1 968.89
4:36 318 0 4 19.4 -13.2 968.78
4:37 318 0 4 19.4 -13.2 968.72
4:38 318 0 4 19.3 -13.2 968.82
4:39 318 0 4 19.3 -13.2 968.75
4:40 318 1 4 19.3 -13.2 968.78
4:41 318 1 4 19.3 -13.2 968.68
4:42 318 1 4 19.3 -13.2 968.72
4:43 318 1 4 19.2 -13.2 968.65
4:44 318 2 4 19.2 -13.3 968.58
4:45 318 2 4 19.2 -13.2 968.68
4:46 318 1 4 19.2 -13.3 968.62
4:47 318 1 4 19.2 -13.3 968.62
4:48 318 1 4 19.2 -13.3 968.58
4:49 318 0 4 19.2 -13.3 968.65
4:50 318 0 4 19.2 -13.3 968.55
4:51 318 0 4 19.2 -13.4 968.58
4:52 318 0 4 19.1 -13.4 968.58
4:53 318 0 4 19.1 -13.4 968.65
4:54 318 0 4 19.1 -13.4 968.68
4:55 318 0 4 19.1 -13.4 968.51
4:56 318 0 4 19.1 -13.4 968.65
4:57 318 1 4 19.1 -13.4 968.58
4:58 318 1 4 19.1 -13.4 968.48
4:59 318 1 4 19.1 -13.4 968.48
5:00 318 1 4 19.1 -13.4 968.51
5:01 318 0 4 19.0 -13.3 968.62
5:02 318 0 4 19.0 -13.3 968.48
5:03 318 0 4 19.0 -13.3 968.51
5:04 318 0 4 19.0 -13.2 968.58
5:05 318 0 4 19.0 -13.3 968.58
5:06 318 2 4 18.9 -13.3 968.48
5:07 318 2 4 18.9 -13.3 968.45
5:08 318 2 4 18.9 -13.2 968.48
5:09 318 2 4 18.9 -13.2 968.51
5:10 318 2 4 18.9 -13.2 968.55
5:11 318 2 4 18.9 -13.2 968.48
5:12 318 3 4 18.9 -13.2 968.45
5:13 318 3 4 18.9 -13.2 968.41
5:14 318 3 4 18.9 -13.2 968.51
5:15 318 3 4 18.8 -13.2 968.34
5:16 318 3 4 18.8 -13.2 968.51
5:17 318 3 4 18.8 -13.2 968.48
5:18 318 2 4 18.8 -13.2 968.51
5:19 318 2 4 18.9 -13.2 968.45
5:20 318 2 4 19.0 -13.2 968.34
5:21 318 2 4 19.3 -13.2 968.41
5:22 318 3 4 19.5 -13.2 968.34
5:23 318 2 4 19.7 -13.2 968.31
5:24 318 2 4 19.8 -13.2 968.38
5:25 318 3 5 19.7 -13.2 968.38
5:26 318 2 5 19.7 -13.3 968.38
5:27 318 2 4 19.7 -13.2 968.45
5:28 318 2 4 19.6 -13.2 968.34
5:29 318 2 4 19.6 -13.3 968.41
5:30 318 2 4 19.6 -13.2 968.41
5:31 318 2 4 19.5 -13.3 968.38
5:32 318 1 4 19.5 -13.3 968.41
5:33 318 3 4 19.5 -13.3 968.51
5:34 318 3 4 19.4 -13.4 968.41
5:35 318 2 4 19.4 -13.3 968.48
5:36 318 1 4 19.4 -13.3 968.34
5:37 318 2 4 19.4 -13.3 968.38
5:38 318 2 4 19.4 -13.3 968.28
5:39 318 1 4 19.4 -13.3 968.31
5:40 318 2 4 19.3 -13.3 968.41
5:41 318 2 4 19.3 -13.3 968.31
5:42 318 1 4 19.3 -13.3 968.31
5:43 318 1 4 19.3 -13.3 968.41
5:44 318 0 4 19.3 -13.3 968.24
5:45 318 1 4 19.3 -13.3 968.38
5:46 318 3 4 19.3 -13.3 968.34
5:47 318 1 4 19.3 -13.3 968.34
5:48 318 2 4 19.3 -13.3 968.34
5:49 318 2 4 19.2 -13.2 968.24
5:50 334 3 4 19.2 -13.2 968.28
5:51 337 2 4 19.2 -13.2 968.28
5:52 337 3 4 19.2 -13.2 968.31
5:53 337 2 4 19.2 -13.2 968.24
5:54 337 1 4 19.2 -13.2 968.28
5:55 337 1 4 19.2 -13.2 968.24
5:56 337 1 4 19.1 -13.2 968.21
5:57 337 1 4 19.1 -13.2 968.11
5:58 337 1 4 19.1 -13.2 968.28
5:59 337 2 4 19.1 -13.2 968.14
6:00 337 0 4 19.1 -13.2 968.18
6:01 337 0 4 19.1 -13.2 968.14
6:02 337 1 4 19.1 -13.2 968.11
6:03 337 0 4 19.1 -13.2 968.11
6:04 337 1 4 19.1 -13.2 968.01
6:05 337 0 4 19.1 -13.2 968.14
6:06 337 0 4 19.1 -13.2 968.07
6:07 337 0 4 19.1 -13.2 968.11
6:08 337 0 4 19.1 -13.2 968.11
6:09 337 2 4 19.1 -13.2 968.07
6:10 337 1 4 19.1 -13.2 968.04
6:11 337 1 4 19.0 -13.2 968.01
6:12 337 0 4 19.1 -13.2 968.01
6:13 337 0 4 19.1 -13.2 968.07
6:14 337 3 4 19.3 -13.2 967.94
6:15 335 3 4 19.6 -13.2 967.97
6:16 335 3 4 19.8 -13.2 967.97
6:17 335 3 4 19.8 -13.2 968.07
6:18 333 4 4 19.8 -13.2 967.94
6:19 333 3 4 19.8 -13.2 967.97
6:20 333 3 4 19.8 -13.2 967.97
6:21 333 4 4 19.7 -13.2 968.14
6:22 333 3 4 19.7 -13.3 968.07
6:23 333 3 4 19.7 -13.3 968.04
6:24 334 2 4 19.6 -13.3 967.97
6:25 334 2 4 19.6 -13.3 968.14
6:26 334 1 4 19.6 -13.3 968.01
6:27 334 0 4 19.5 -13.3 968.07
6:28 334 3 4 19.5 -13.3 968.01
6:29 334 1 4 19.5 -13.4 968.11
6:30 334 2 4 19.5 -13.4 968.07
6:31 334 1 4 19.5 -13.4 968.01
6:32 334 3 4 19.4 -13.4 967.90
6:33 314 2 4 19.4 -13.4 968.01
6:34 321 3 4 19.4 -13.4 967.90
6:35 328 5 4 19.4 -13.4 968.04
6:36 334 7 4 19.4 -13.3 968.01
6:37 343 6 4 19.3 -13.2 968.04
6:38 319 9 4 19.3 -13.2 968.04
6:39 340 9 4 19.2 -13.1 967.97
6:40 335 6 4 19.2 -13.1 968.01
6:41 326 5 4 19.2 -13.2 967.94
6:42 329 7 4 19.1 -13.2 967.87
6:43 335 5 4 19.1 -13.3 967.87
6:44 332 9 4 19.1 -13.3 967.94
6:45 342 8 4 19.1 -13.2 967.87
6:46 340 5 4 19.0 -13.2 967.84
6:47 353 5 4 19.0 -13.3 967.90
6:48 331 7 4 18.9 -13.2 967.84
6:49 326 11 4 18.9 -13.2 967.77
6:50 334 7 4 18.9 -13.2 967.70
6:51 334 8 4 18.9 -13.2 967.94
6:52 323 8 4 18.8 -13.3 967.84
6:53 321 6 4 18.8 -13.3 967.87
6:54 324 9 4 18.8 -13.3 967.84
6:55 325 9 4 18.8 -13.3 967.87
6:56 328 8 4 18.7 -13.4 967.74
6:57 321 5 4 18.7 -13.3 967.77
6:58 325 6 4 18.7 -13.4 967.80
6:59 324 9 4 18.7 -13.4 967.77
7:00 323 7 4 18.7 -13.4 967.74
7:01 322 7 4 18.6 -13.4 967.84
7:02 319 6 4 18.6 -13.4 967.87
7:03 323 10 4 18.6 -13.4 967.80
7:04 319 9 4 18.6 -13.4 967.67
7:05 330 10 4 18.7 -13.4 967.63
7:06 336 6 5 18.9 -13.4 967.70
7:07 326 9 4 19.1 -13.4 967.57
7:08 328 7 4 19.3 -13.5 967.70
7:09 326 8 5 19.3 -13.5 967.60
7:10 331 8 5 19.3 -13.6 967.50
7:11 329 9 4 19.2 -13.6 967.53
7:12 331 9 4 19.2 -13.6 967.57
7:13 324 7 4 19.1 -13.6 967.63
7:14 329 8 4 19.1 -13.6 967.53
7:15 329 7 4 19.1 -13.6 967.53
7:16 321 5 4 19.0 -13.6 967.46
7:17 317 3 4 19.0 -13.7 967.50
7:18 337 8 4 19.0 -13.6 967.53
7:19 327 4 4 18.9 -13.7 967.36
7:20 326 8 4 18.9 -13.7 967.43
7:21 331 9 4 18.9 -13.7 967.36
7:22 328 10 4 18.9 -13.7 967.46
7:23 334 10 4 18.8 -13.7 967.46
7:24 341 9 4 18.8 -13.7 967.33
7:25 347 10 4 18.7 -13.7 967.43
7:26 343 10 4 18.6 -13.8 967.40
7:27 345 10 4 18.6 -13.8 967.43
7:28 347 8 4 18.6 -13.8 967.40
7:29 348 9 4 18.5 -13.8 967.57
7:30 352 10 4 18.4 -13.6 967.46
7:31 0 9 4 18.4 -13.5 967.29
7:32 341 12 4 18.4 -13.4 967.43
7:33 357 9 4 18.3 -13.4 967.46
7:34 343 10 4 18.2 -13.4 967.29
7:35 339 10 4 18.2 -13.6 967.29
7:36 340 11 4 18.2 -13.6 967.29
7:37 343 10 5 18.1 -13.6 967.33
7:38 342 10 4 18.1 -13.6 967.23
7:39 346 9 4 18.1 -13.6 967.23
7:40 353 6 4 18.1 -13.6 967.23
7:41 352 8 5 18.0 -13.6 967.26
7:42 358 7 5 18.0 -13.7 967.26
7:43 356 4 4 18.0 -13.6 967.19
7:44 354 8 4 17.9 -13.6 967.19
7:45 5 5 5 17.9 -13.6 967.23
7:46 2 3 4 17.9 -13.6 967.23
7:47 358 7 4 17.9 -13.6 967.19
7:48 352 9 4 17.9 -13.6 967.09
7:49 358 3 4 17.9 -13.6 967.26
7:50 350 7 4 17.9 -13.7 967.16
7:51 344 10 4 18.0 -13.7 967.13
7:52 355 6 5 18.2 -13.8 967.02
7:53 354 7 5 18.4 -13.8 967.19
7:54 353 7 4 18.6 -13.7 967.19
7:55 345 8 5 18.6 -13.8 967.09
7:56 357 5 4 18.6 -13.8 967.19
7:57 352 8 5 18.5 -13.8 967.19
7:58 349 8 4 18.4 -13.8 967.26
7:59 342 10 4 18.4 -13.8 967.13
8:00 346 9 4 18.3 -13.8 967.13
8:01 348 10 4 18.3 -13.8 967.19
8:02 347 11 4 18.3 -13.8 967.29
8:03 356 5 4 18.2 -13.8 967.16
8:04 339 10 4 18.2 -13.8 967.19
8:05 357 4 4 18.2 -13.8 967.13
8:06 355 7 4 18.1 -13.9 967.09
8:07 46 3 4 18.1 -13.8 967.06
8:08 18 4 4 18.1 -13.6 967.13
8:09 0 3 4 18.1 -13.6 967.23
8:10 7 3 4 18.1 -13.6 966.99
8:11 343 3 4 18.1 -13.4 966.99
8:12 357 3 4 18.1 -13.2 967.02
8:13 353 4 4 18.1 -13.1 967.19
8:14 350 7 4 18.1 -13.1 966.96
8:15 0 4 4 18.1 -13.2 967.02
8:16 358 3 4 18.0 -13.1 966.92
8:17 27 2 4 18.0 -12.9 967.16
8:18 359 5 4 18.0 -12.9 966.99
8:19 17 2 4 17.9 -12.9 967.09
8:20 8 5 4 17.9 -13.0 967.02
8:21 50 8 4 17.9 -13.0 966.99
8:22 347 6 4 17.9 -13.1 966.99
8:23 350 6 4 17.9 -12.9 967.02
8:24 341 10 4 17.9 -12.8 966.99
8:25 345 9 4 17.9 -12.9 966.92
8:26 350 7 4 17.8 -12.9 967.02
8:27 346 9 4 17.8 -12.9 967.13
8:28 351 9 4 17.8 -12.8 967.06
8:29 354 6 4 17.7 -12.9 966.92
8:30 355 8 4 17.7 -13.0 966.92
8:31 347 8 4 17.7 -12.9 966.96
8:32 347 8 4 17.6 -12.9 967.09
8:33 347 10 4 17.6 -12.9 966.96
8:34 0 3 4 17.6 -13.0 966.96
8:35 347 9 4 17.8 -12.9 966.92
8:36 350 8 4 17.9 -12.9 966.92
8:37 347 11 5 18.2 -12.9 966.82
8:38 336 12 5 18.2 -12.9 966.82
8:39 1 9 5 18.2 -13.0 966.75
8:40 350 10 5 18.2 -13.1 966.92
8:41 350 10 5 18.1 -13.1 966.92
8:42 346 11 5 18.1 -13.1 966.85
8:43 343 10 5 18.0 -13.2 966.99
8:44 339 10 5 17.9 -13.3 966.96
8:45 334 11 4 17.9 -13.3 966.85
8:46 343 11 5 17.8 -13.4 966.82
8:47 344 9 5 17.8 -13.4 966.79
8:48 340 9 4 17.7 -13.5 966.72
8:49 335 10 5 17.7 -13.5 966.89
8:50 336 10 4 17.7 -13.6 966.79
8:51 336 10 4 17.7 -13.6 966.72
8:52 335 10 4 17.6 -13.6 966.82
8:53 335 9 5 17.6 -13.6 966.85
8:54 337 8 5 17.6 -13.6 966.82
8:55 344 8 5 17.5 -13.6 966.72
8:56 351 6 5 17.5 -13.7 966.75
8:57 339 7 5 17.5 -13.7 966.79
8:58 342 7 5 17.4 -13.7 966.65
8:59 348 8 5 17.4 -13.7 966.82
9:00 344 8 5 17.4 -13.7 966.75
9:01 340 6 5 17.4 -13.7 966.72
9:02 338 9 5 17.4 -13.7 966.79
9:03 349 7 5 17.3 -13.7 966.75
9:04 343 9 4 17.3 -13.7 966.79
9:05 348 5 5 17.3 -13.6 966.79
9:06 353 7 5 17.3 -13.6 966.72
9:07 356 5 5 17.3 -13.4 966.82
9:08 355 6 4 17.3 -13.3 966.79
9:09 0 2 4 17.3 -13.4 966.65
9:10 357 6 4 17.3 -13.4 966.69
9:11 359 5 4 17.3 -13.4 966.72
9:12 350 6 4 17.3 -13.4 966.79
9:13 359 3 4 17.2 -13.4 966.65
9:14 359 3 5 17.3 -13.3 966.72
9:15 355 4 4 17.3 -13.2 966.62
9:16 28 3 5 17.6 -13.1 966.69
9:17 16 3 5 17.8 -12.9 966.75
9:18 39 3 5 18.0 -12.9 966.75
9:19 11 5 5 18.1 -13.0 966.62
9:20 0 2 5 18.1 -12.9 966.65
9:21 20 5 5 18.1 -12.9 966.65
9:22 7 2 5 18.1 -12.8 966.65
9:23 7 3 4 18.1 -12.7 966.75
9:24 35 2 4 18.0 -12.7 966.82
9:25 36 2 4 18.0 -12.8 966.82
9:26 47 3 4 18.0 -12.7 966.79
9:27 45 3 4 18.0 -12.8 966.72
9:28 24 2 4 18.0 -12.6 966.79
9:29 8 2 4 18.0 -12.4 966.85
9:30 0 1 4 18.0 -12.4 966.79
9:31 26 1 4 18.0 -12.4 966.75
9:32 7 2 4 18.0 -12.3 966.79
9:33 3 3 4 18.0 -12.4 966.75
9:34 355 3 4 18.0 -12.6 966.82
9:35 0 2 4 18.0 -12.6 966.85
9:36 34 2 4 18.0 -12.6 966.75
9:37 47 4 4 18.0 -12.7 966.79
9:38 23 3 4 18.0 -12.9 966.75
9:39 5 3 4 17.9 -12.7 966.85
9:40 31 4 4 17.9 -12.6 966.75
9:41 4 3 4 18.0 -12.7 966.65
9:42 7 3 4 17.9 -12.5 966.72
9:43 21 5 4 17.9 -12.3 966.72
9:44 5 3 4 17.9 -12.6 966.82
9:45 358 3 4 17.9 -12.9 966.82
9:46 3 3 4 17.9 -12.9 966.82
9:47 42 4 4 17.9 -13.0 966.82
9:48 13 3 4 17.9 -13.2 966.79
9:49 16 3 4 17.9 -13.2 966.85
9:50 355 3 4 17.9 -13.0 966.82
9:51 2 6 4 17.9 -12.9 966.75
9:52 2 2 4 17.9 -12.8 966.82
9:53 21 5 4 17.9 -12.7 966.75
9:54 19 3 4 17.9 -12.5 966.82
9:55 27 3 4 17.9 -12.4 966.82
9:56 13 3 4 17.9 -12.3 966.82
9:57 28 3 4 18.1 -12.3 966.82
9:58 27 3 4 18.3 -12.4 966.75
9:59 41 5 4 18.6 -12.5 966.79
10:00 28 4 4 18.8 -12.5 966.69
10:01 29 3 4 18.8 -12.6 966.62
10:02 3 3 4 18.8 -12.5 966.75
10:03 356 3 4 18.8 -12.4 966.79
10:04 1 5 4 18.7 -12.5 966.75
10:05 11 3 4 18.7 -12.5 966.79
10:06 18 3 4 18.7 -12.5 966.72
10:07 28 3 4 18.7 -12.6 966.79
10:08 9 5 4 18.6 -12.8 966.75
10:09 4 6 4 18.6 -12.8 966.72
10:10 21 4 4 18.6 -12.7 966.69
10:11 41 5 4 18.6 -12.7 966.65
10:12 355 5 4 18.6 -12.6 966.65
10:13 5 10 4 18.5 -12.3 966.75
10:14 26 3 4 18.5 -12.1 966.65
10:15 20 5 4 18.4 -12.2 966.75
10:16 349 4 4 18.4 -12.1 966.75
10:17 19 4 4 18.4 -12.2 966.62
10:18 17 4 4 18.4 -12.3 966.69
10:19 36 3 4 18.4 -12.4 966.72
10:20 358 3 4 18.4 -12.4 966.62
10:21 33 3 4 18.3 -12.3 966.55
10:22 10 1 4 18.3 -12.2 966.62
10:23 43 7 4 18.3 -12.2 966.72
10:24 22 3 4 18.3 -12.2 966.65
10:25 20 3 4 18.3 -12.4 966.62
10:26 2 3 4 18.3 -12.4 966.62
10:27 2 4 4 18.3 -12.4 966.48
10:28 8 4 4 18.3 -12.2 966.62
10:29 2 3 4 18.3 -12.2 966.62
10:30 338 4 4 18.3 -12.4 966.62
10:31 8 4 4 18.3 -12.4 966.45
10:32 15 4 4 18.2 -12.5 966.52
10:33 35 4 4 18.2 -12.4 966.48
10:34 41 6 4 18.2 -12.6 966.41
10:35 3 4 4 18.2 -12.8 966.52
10:36 45 4 4 18.2 -12.8 966.52
10:37 36 3 4 18.2 -12.8 966.38
10:38 44 3 4 18.2 -12.8 966.55
10:39 16 2 4 18.2 -12.9 966.52
10:40 41 5 4 18.3 -13.1 966.41
10:41 42 2 4 18.5 -13.1 966.45
10:42 40 3 4 18.8 -13.0 966.45
10:43 21 5 4 19.0 -12.9 966.31
10:44 17 3 4 19.1 -13.1 966.41
10:45 1 6 4 19.1 -13.3 966.55
10:46 18 2 4 19.1 -13.4 966.48
10:47 43 6 4 19.1 -13.4 966.41
10:48 44 7 4 19.0 -13.4 966.45
10:49 46 8 4 19.0 -13.5 966.31
10:50 49 4 4 18.9 -13.5 966.24
10:51 8 2 4 18.9 -13.2 966.41
10:52 0 2 4 18.9 -13.1 966.45
10:53 10 3 4 18.9 -13.3 966.52
10:54 41 2 4 18.8 -13.5 966.41
10:55 36 3 4 18.8 -13.5 966.31
10:56 1 3 4 18.8 -13.4 966.41
10:57 0 1 4 18.8 -13.5 966.41
10:58 0 1 4 18.8 -13.5 966.41
10:59 3 3 4 18.8 -13.5 966.31
11:00 46 8 4 18.8 -13.6 966.28
11:01 42 5 4 18.7 -13.5 966.45
11:02 48 5 4 18.7 -13.5 966.31
11:03 50 4 4 18.7 -13.5 966.31
11:04 44 6 4 18.7 -13.5 966.28
11:05 50 2 4 18.7 -13.5 966.24
11:06 36 3 4 18.7 -13.4 966.28
11:07 28 2 4 18.7 -13.4 966.31
11:08 0 3 4 18.7 -13.4 966.21
11:09 40 3 4 18.7 -13.4 966.21
11:10 41 3 4 18.7 -13.5 966.14
11:11 38 2 4 18.6 -13.5 966.18
11:12 37 3 4 18.6 -13.5 966.21
11:13 17 2 4 18.6 -13.6 966.24
11:14 42 3 4 18.6 -13.6 966.14
11:15 47 3 4 18.6 -13.6 966.21
11:16 47 3 4 18.6 -13.7 966.08
11:17 45 4 4 18.6 -13.7 966.08
11:18 38 3 4 18.6 -13.7 966.11
11:19 14 2 4 18.6 -13.7 966.21
11:20 354 2 4 18.5 -13.7 966.14
11:21 354 3 4 18.5 -13.6 966.21
11:22 46 7 4 18.5 -13.6 966.08
11:23 49 8 4 18.5 -13.6 966.14
11:24 44 4 4 18.5 -13.6 966.21
11:25 13 3 4 18.6 -13.6 966.14
11:26 338 2 4 18.8 -13.6 966.24
11:27 12 2 4 19.0 -13.6 966.08
11:28 21 2 4 19.2 -13.6 966.08
11:29 54 3 4 19.3 -13.6 966.14
11:30 26 2 4 19.3 -13.7 966.11
11:31 34 3 4 19.3 -13.8 966.24
11:32 32 3 4 19.2 -13.7 966.08
11:33 44 4 4 19.2 -13.7 966.14
11:34 43 9 4 19.2 -13.7 966.14
11:35 31 3 4 19.1 -13.7 966.11
11:36 11 3 4 19.1 -13.7 966.08
11:37 10 2 4 19.1 -13.6 966.14
11:38 22 3 4 19.1 -13.6 966.11
11:39 32 5 4 19.1 -13.6 966.04
11:40 43 3 4 19.0 -13.6 966.14
11:41 36 3 4 19.0 -13.6 966.11
11:42 40 6 4 19.0 -13.6 966.08
11:43 46 7 4 19.0 -13.6 966.04
11:44 41 6 4 18.9 -13.6 965.80
11:45 18 3 4 18.9 -13.6 965.84
11:46 40 8 4 18.9 -13.5 965.94
11:47 28 3 4 18.9 -13.5 965.97
11:48 40 2 4 18.9 -13.4 965.91
11:49 345 3 4 18.9 -13.4 965.84
11:50 45 6 4 18.8 -13.4 966.04
11:51 39 6 4 18.8 -13.4 965.94
11:52 33 3 4 18.8 -13.5 966.04
11:53 35 3 4 18.8 -13.5 965.84
11:54 46 4 4 18.8 -13.4 965.84
11:55 45 5 4 18.8 -13.5 965.87
11:56 45 5 4 18.8 -13.4 965.84
11:57 49 6 4 18.7 -13.5 965.87
11:58 50 3 4 18.7 -13.6 965.97
11:59 48 4 4 18.7 -13.5 965.77
12:00 62 9 4 18.7 -13.4 965.91
12:01 45 6 4 18.7 -13.4 965.80
12:02 59 10 4 18.7 -13.4 965.67
12:03 43 6 4 18.7 -13.4 965.64
12:04 45 3 4 18.7 -13.4 965.74
12:05 45 2 4 18.7 -13.4 965.60
12:06 45 3 4 18.7 -13.3 965.70
12:07 45 5 4 18.7 -13.4 965.80
12:08 45 9 4 18.6 -13.4 965.64
12:09 44 5 4 18.6 -13.4 965.74
12:10 44 2 4 18.7 -13.4 965.60
12:11 44 3 4 18.8 -13.4 965.70
12:12 44 3 4 19.0 -13.4 965.74
12:13 44 2 4 19.3 -13.4 965.64
12:14 44 3 4 19.5 -13.5 965.70
12:15 44 6 4 19.6 -13.6 965.74
12:16 53 8 4 19.6 -13.6 965.84
12:17 56 7 4 19.6 -13.6 965.74
12:18 61 6 4 19.5 -13.7 965.80
12:19 60 7 4 19.4 -13.7 965.74
12:20 56 7 4 19.4 -13.7 965.74
12:21 56 9 4 19.4 -13.7 965.74
12:22 56 8 4 19.3 -13.8 965.67
12:23 56 8 4 19.3 -13.8 965.67
12:24 58 7 4 19.3 -13.8 965.60
12:25 64 10 4 19.3 -13.8 965.67
12:26 69 10 4 19.3 -13.8 965.60
12:27 72 8 4 19.3 -13.8 965.60
12:28 72 8 4 19.2 -13.8 965.50
12:29 72 9 4 19.2 -13.8 965.50
12:30 74 8 4 19.2 -13.9 965.47
12:31 75 8 4 19.2 -13.9 965.43
12:32 75 9 4 19.2 -13.9 965.36
12:33 75 8 4 19.2 -13.9 965.43
12:34 74 9 4 19.2 -14.0 965.57
12:35 72 8 4 19.2 -14.0 965.67
12:36 69 9 4 19.1 -14.1 965.53
12:37 66 8 4 19.1 -14.1 965.60
12:38 64 10 4 19.1 -14.1 965.57
12:39 65 9 4 19.1 -14.1 965.53
12:40 72 9 4 19.1 -14.2 965.50
12:41 74 8 4 19.1 -14.2 965.47
12:42 82 9 4 19.1 -14.3 965.50
12:43 83 8 4 19.1 -14.3 965.47
12:44 75 9 4 19.1 -14.3 965.40
12:45 75 9 4 19.0 -14.6 965.47
12:46 78 10 4 19.0 -14.4 965.36
12:47 74 10 4 19.0 -14.4 965.43
12:48 71 10 4 19.0 -14.6 965.50
12:49 72 10 4 19.0 -14.6 965.50
12:50 76 11 4 19.0 -14.5 965.40
12:51 78 10 4 18.9 -14.6 965.43
12:52 81 10 4 18.9 -14.5 965.30
12:53 81 10 4 18.9 -14.5 965.36
12:54 82 10 4 18.9 -14.6 965.40
12:55 81 11 4 18.9 -14.6 965.36
12:56 80 11 4 18.9 -14.7 965.33
12:57 76 10 4 18.9 -14.7 965.36
12:58 75 11 4 18.9 -14.8 965.33
12:59 73 10 4 18.9 -14.8 965.57
13:00 73 10 4 18.9 -14.8 965.50
13:01 73 10 4 19.1 -14.8 965.50
13:02 70 12 4 19.3 -14.8 965.50
13:03 69 13 4 19.6 -14.9 965.47
13:04 69 11 4 19.7 -14.9 965.36
13:05 64 11 4 19.8 -14.9 965.40
13:06 63 11 4 19.7 -15.0 965.43
13:07 62 10 4 19.7 -15.1 965.47
13:08 58 11 4 19.7 -15.1 965.33
13:09 59 12 4 19.6 -15.1 965.50
13:10 64 12 4 19.6 -15.0 965.36
13:11 66 12 4 19.6 -15.0 965.36
13:12 72 12 4 19.5 -15.1 965.43
13:13 66 13 4 19.5 -15.0 965.33
13:14 68 12 4 19.5 -15.1 965.26
13:15 67 12 4 19.4 -15.2 965.26
13:16 67 11 4 19.4 -15.2 965.30
13:17 65 12 4 19.4 -15.2 965.26
13:18 66 14 4 19.4 -15.2 965.26
13:19 72 12 4 19.4 -15.2 965.23
13:20 70 12 4 19.3 -15.2 965.30
13:21 67 11 4 19.3 -15.2 965.20
13:22 64 11 4 19.3 -15.2 965.26
13:23 68 12 4 19.3 -15.3 965.30
13:24 67 11 4 19.3 -15.2 965.26
13:25 69 11 4 19.3 -15.3 965.09
13:26 78 11 4 19.3 -15.3 965.23
13:27 86 12 4 19.2 -15.3 965.23
13:28 84 14 4 19.2 -15.3 965.26
13:29 97 13 4 19.2 -15.3 965.40
13:30 95 13 4 19.2 -15.4 965.40
13:31 106 12 4 19.2 -15.6 965.33
13:32 97 15 4 19.2 -15.9 965.23
13:33 103 12 4 19.2 -16.1 965.26
13:34 119 14 4 19.2 -17.0 965.13
13:35 113 15 4 19.2 -17.6 965.30
13:36 115 15 4 19.1 -18.0 965.36
13:37 113 17 4 19.1 -18.0 965.30
13:38 105 14 4 19.1 -18.1 965.33
13:39 99 14 4 19.1 -18.1 965.36
13:40 95 13 4 19.1 -18.3 965.26
13:41 92 14 4 19.1 -18.5 965.20
13:42 91 12 4 19.1 -18.6 965.23
13:43 81 13 4 19.1 -18.8 965.40
13:44 73 12 4 19.1 -18.9 965.20
13:45 79 10 4 19.0 -19.1 965.26
13:46 85 15 4 19.0 -18.9 965.40
13:47 92 16 4 19.0 -18.8 965.26
13:48 93 17 4 19.0 -18.8 965.30
13:49 92 13 4 19.0 -18.8 965.23
13:50 94 17 4 19.1 -19.0 965.23
13:51 80 17 4 19.3 -18.7 965.33
13:52 90 14 4 19.5 -18.7 965.33
13:53 80 15 4 19.8 -18.9 965.30
13:54 81 17 4 19.9 -18.9 965.20
13:55 79 12 4 19.9 -18.7 965.26
13:56 70 16 4 19.9 -18.8 965.50
13:57 89 14 4 19.8 -18.8 965.36
13:58 93 14 4 19.8 -18.8 965.20
13:59 102 16 4 19.8 -18.7 965.26
14:00 112 17 4 19.7 -18.6 965.36
14:01 115 19 4 19.7 -18.2 965.26
14:02 122 16 4 19.7 -18.2 965.16
14:03 128 17 4 19.6 -18.4 965.23
14:04 100 17 4 19.6 -18.5 965.30
14:05 106 17 4 19.6 -18.7 965.36
14:06 135 9 4 19.6 -18.7 965.70
14:07 103 13 4 19.5 -18.6 965.67
14:08 96 10 4 19.5 -18.7 965.74
14:09 115 8 4 19.5 -18.8 965.40
14:10 97 22 4 19.5 -18.7 965.40
14:11 125 7 4 19.4 -18.2 965.53
14:12 91 9 4 19.4 -18.7 965.60
14:13 65 12 4 19.4 -19.0 965.60
14:14 53 10 4 19.4 -18.9 965.53
14:15 106 6 4 19.4 -18.8 965.57
14:16 89 11 4 19.4 -19.0 965.50
14:17 89 11 4 19.3 -19.2 965.47
14:18 55 10 4 19.3 -19.2 965.47
14:19 54 15 4 19.3 -19.1 965.36
14:20 45 16 4 19.3 -18.6 965.26
14:21 71 12 4 19.3 -18.8 965.36
14:22 50 9 4 19.3 -18.8 965.40
14:23 69 10 4 19.3 -18.8 965.30
14:24 102 15 4 19.2 -18.8 965.23
14:25 119 15 4 19.2 -18.6 965.26
14:26 126 17 4 19.2 -18.3 965.23
14:27 137 17 4 19.2 -18.0 965.26
14:28 126 14 4 19.2 -18.9 965.33
14:29 139 18 4 19.2 -19.4 965.26
14:30 135 18 4 19.2 -19.3 965.30
14:31 138 19 4 19.2 -18.7 965.26
14:32 120 13 4 19.1 -18.4 965.33
14:33 108 17 4 19.1 -19.0 965.26
14:34 110 10 4 19.1 -19.1 965.26
14:35 124 10 4 19.1 -19.1 965.23
14:36 121 15 4 19.1 -19.1 965.16
14:37 119 12 4 19.1 -18.9 965.16
14:38 150 15 3 19.0 -18.7 965.20
14:39 137 13 4 19.0 -18.6 965.16
14:40 137 11 4 19.0 -18.8 965.16
14:41 146 16 4 19.1 -18.8 965.16
14:42 139 16 4 19.2 -18.4 965.03
14:43 141 14 4 19.5 -18.4 965.13
14:44 138 23 4 19.7 -18.9 964.96
14:45 141 21 3 19.8 -18.9 965.03
14:46 147 20 4 19.8 -18.8 965.06
14:47 143 23 4 19.8 -18.8 964.96
14:48 134 22 4 19.7 -18.6 964.89
14:49 144 17 3 19.7 -18.7 964.99
14:50 149 22 3 19.6 -18.9 964.92
14:51 141 16 4 19.6 -19.0 965.16
14:52 148 9 4 19.6 -19.1 965.23
14:53 127 12 3 19.5 -19.1 965.16
14:54 125 17 4 19.5 -19.1 965.06
14:55 109 13 4 19.5 -19.3 965.13
14:56 120 14 3 19.4 -19.3 964.99
14:57 108 15 4 19.4 -19.4 965.09
14:58 120 11 3 19.4 -19.6 965.26
14:59 124 14 3 19.4 -19.7 965.06
15:00 128 11 3 19.4 -19.8 965.16
15:01 123 11 3 19.3 -19.8 965.09
15:02 114 19 3 19.3 -19.9 965.03
15:03 132 13 3 19.3 -19.9 964.99
15:04 134 15 3 19.3 -20.0 964.89
15:05 145 13 3 19.3 -19.9 964.89
15:06 141 16 3 19.3 -19.9 964.89
15:07 136 15 3 19.2 -19.8 964.92
15:08 141 17 3 19.2 -19.8 964.92
15:09 142 20 3 19.2 -19.7 964.75
15:10 147 16 3 19.2 -19.7 964.96
15:11 139 20 3 19.2 -19.5 964.96
15:12 129 22 3 19.1 -19.2 964.92
15:13 139 14 3 19.1 -19.1 964.99
15:14 116 16 3 19.1 -19.2 964.96
15:15 128 15 3 19.1 -19.4 964.99
15:16 128 15 3 19.1 -19.6 964.96
15:17 124 17 3 19.1 -19.7 964.92
15:18 119 13 3 19.0 -19.8 964.89
15:19 138 12 3 19.0 -19.8 964.96
15:20 129 17 3 19.0 -19.7 965.06
15:21 137 17 3 19.0 -19.8 964.89
15:22 138 13 3 18.9 -19.6 964.99
15:23 129 13 3 18.9 -19.6 964.92
15:24 137 17 3 18.9 -19.5 965.03
15:25 132 15 3 18.9 -19.4 965.13
15:26 142 15 3 18.9 -19.5 965.03
15:27 140 12 3 18.8 -19.5 965.13
15:28 145 13 3 18.8 -19.4 965.16
15:29 136 13 3 18.9 -19.4 964.99
15:30 103 13 3 19.0 -19.4 964.89
15:31 125 14 3 19.2 -19.4 964.79
15:32 112 10 3 19.4 -19.6 964.86
15:33 112 12 3 19.7 -19.6 965.03
15:34 111 13 3 19.7 -19.5 964.89
15:35 103 13 3 19.7 -19.4 964.89
15:36 100 13 3 19.7 -19.4 964.86
15:37 108 15 3 19.6 -19.6 964.79
15:38 109 13 3 19.6 -19.6 964.89
15:39 97 10 3 19.5 -19.6 964.99
15:40 77 15 3 19.5 -19.8 964.99
15:41 82 12 3 19.4 -19.8 965.09
15:42 66 9 3 19.4 -19.8 964.92
15:43 75 18 3 19.4 -19.6 965.03
15:44 68 16 3 19.4 -19.6 965.13
15:45 72 13 3 19.4 -19.3 965.06
15:46 67 13 3 19.3 -19.2 964.92
15:47 61 13 3 19.3 -19.1 964.89
15:48 68 13 3 19.3 -18.7 964.89
15:49 71 10 3 19.3 -18.8 964.82
15:50 76 13 3 19.3 -18.8 964.86
15:51 70 11 3 19.3 -18.8 964.72
15:52 72 12 3 19.2 -19.0 964.89
15:53 78 12 3 19.2 -19.0 964.86
15:54 87 13 3 19.2 -18.8 964.72
15:55 75 12 3 19.2 -18.8 964.86
15:56 73 14 3 19.2 -18.8 964.75
15:57 71 16 3 19.2 -18.8 964.65
15:58 63 17 3 19.2 -18.8 964.75
15:59 73 17 3 19.2 -18.9 964.86
16:00 79 16 3 19.1 -19.0 964.79
16:01 65 16 3 19.1 -18.9 964.86
16:02 75 14 3 19.1 -18.9 964.89
16:03 76 11 3 19.1 -18.8 964.86
16:04 66 12 3 19.1 -18.6 964.86
16:05 64 12 3 19.1 -18.5 964.89
16:06 66 15 3 19.1 -18.5 964.89
16:07 67 13 3 19.0 -18.6 964.89
16:08 71 16 3 19.0 -18.7 964.82
16:09 46 16 3 19.0 -19.0 964.82
16:10 55 15 3 18.9 -19.2 964.79
16:11 53 14 3 18.9 -19.2 964.89
16:12 58 12 3 18.9 -18.9 964.82
16:13 64 12 3 18.9 -18.8 964.89
16:14 66 17 3 18.9 -18.8 964.75
16:15 66 15 3 18.9 -18.8 964.82
16:16 57 17 3 18.8 -18.9 964.69
16:17 56 17 3 18.8 -19.2 964.72
16:18 51 17 3 18.9 -19.4 964.52
16:19 46 18 3 19.0 -19.6 964.52
16:20 48 18 3 19.2 -19.7 964.45
16:21 50 19 3 19.5 -19.7 964.45
16:22 52 19 3 19.7 -19.7 964.62
16:23 50 21 3 19.7 -19.6 964.52
16:24 49 19 3 19.7 -19.7 964.42
16:25 49 21 3 19.6 -19.9 964.42
16:26 42 21 3 19.5 -20.1 964.31
16:27 39 17 3 19.5 -20.3 964.45
16:28 40 15 3 19.4 -20.6 964.52
16:29 36 17 3 19.4 -20.7 964.45
16:30 42 21 3 19.3 -20.6 964.48
16:31 37 17 3 19.3 -20.7 964.38
16:32 39 16 3 19.2 -20.8 964.35
16:33 42 23 3 19.2 -20.8 964.48
16:34 46 23 3 19.2 -20.9 964.42
16:35 46 22 3 19.1 -20.9 964.35
16:36 47 26 3 19.1 -20.8 964.35
16:37 43 22 3 19.1 -20.9 964.28
16:38 43 23 3 19.0 -21.0 964.25
16:39 48 27 3 18.9 -21.1 964.38
16:40 47 25 2 18.9 -21.0 964.28
16:41 50 23 2 18.9 -21.0 964.38
16:42 50 25 2 18.8 -20.9 964.28
16:43 47 28 2 18.8 -21.0 964.31
16:44 46 28 2 18.8 -21.1 964.31
16:45 43 27 2 18.8 -21.1 964.15
16:46 48 26 2 18.7 -21.1 964.38
16:47 50 24 2 18.7 -21.1 964.38
16:48 49 27 2 18.7 -21.2 964.38
16:49 48 27 2 18.6 -21.2 964.48
16:50 46 26 2 18.6 -21.2 964.42
16:51 46 29 2 18.6 -21.2 964.45
16:52 45 24 2 18.5 -21.2 964.45
16:53 50 24 2 18.5 -21.1 964.42
16:54 51 25 2 18.4 -21.0 964.45
16:55 48 24 2 18.4 -21.1 964.48
16:56 51 26 2 18.4 -21.2 964.38
16:57 43 27 2 18.3 -21.2 964.55
16:58 47 27 2 18.3 -21.3 964.42
16:59 48 27 2 18.3 -21.4 964.42
17:00 47 27 2 18.3 -21.4 964.31
17:01 51 24 2 18.4 -21.4 964.38
17:02 49 26 2 18.6 -21.5 964.38
17:03 50 24 2 18.8 -21.4 964.38
17:04 47 23 2 19.1 -21.4 964.25
17:05 47 26 2 19.1 -21.4 964.31
17:06 51 26 2 19.1 -21.4 964.25
17:07 51 26 2 19.1 -21.5 964.25
17:08 51 27 2 19.0 -21.4 964.38
17:09 50 28 2 18.9 -21.5 964.31
17:10 50 27 2 18.9 -21.5 964.35
17:11 50 28 2 18.8 -21.6 964.21
17:12 49 26 2 18.8 -21.6 964.28
17:13 47 29 2 18.7 -21.6 964.28
17:14 47 28 2 18.7 -21.6 964.35
17:15 48 25 2 18.6 -21.6 964.48
17:16 48 27 2 18.6 -21.7 964.25
17:17 49 25 2 18.6 -21.7 964.35
17:18 48 29 2 18.5 -21.8 964.52
17:19 49 26 2 18.4 -21.7 964.45
17:20 44 21 2 18.4 -21.7 964.38
17:21 46 29 2 18.4 -21.7 964.28
17:22 45 24 2 18.3 -21.7 964.35
17:23 49 26 2 18.3 -21.7 964.28
17:24 50 27 2 18.3 -21.7 964.35
17:25 49 28 2 18.2 -21.8 964.21
17:26 50 30 2 18.2 -21.8 964.21
17:27 51 28 2 18.2 -21.8 964.15
17:28 46 28 2 18.1 -21.9 964.11
17:29 48 24 2 18.1 -21.9 964.21
17:30 47 27 2 18.1 -22.0 964.28
17:31 50 29 1 18.1 -22.0 964.38
17:32 51 26 1 18.0 -21.9 964.35
17:33 52 30 2 17.9 -21.9 964.38
17:34 53 30 1 17.9 -21.9 964.52
17:35 49 26 1 17.9 -21.9 964.38
17:36 52 28 1 17.9 -21.9 964.35
17:37 50 30 1 17.8 -22.0 964.28
17:38 55 28 1 17.8 -22.1 964.28
17:39 56 26 1 17.8 -22.1 964.28
17:40 56 28 1 18.0 -22.1 964.35
17:41 58 26 2 18.2 -22.1 964.45
17:42 60 29 2 18.4 -22.1 964.35
17:43 57 28 2 18.6 -22.2 964.42
17:44 62 28 2 18.7 -22.2 964.31
17:45 60 30 2 18.6 -22.2 964.59
17:46 63 33 2 18.6 -22.2 964.42
17:47 65 34 1 18.4 -22.3 964.48
17:48 65 29 1 18.4 -22.3 964.48
17:49 74 30 1 18.3 -22.3 964.55
17:50 72 30 1 18.3 -22.4 964.48
17:51 73 33 1 18.3 -22.3 964.38
17:52 68 30 1 18.2 -22.5 964.65
17:53 68 27 1 18.2 -22.5 964.62
17:54 66 30 1 18.2 -22.4 964.72
17:55 72 29 1 18.1 -22.5 964.79
17:56 69 32 1 18.1 -22.5 964.69
17:57 75 31 1 18.1 -22.6 964.62
17:58 81 30 1 18.1 -22.6 964.65
17:59 83 24 1 18.0 -22.6 964.75
18:00 69 28 1 18.0 -22.6 964.69
18:01 70 25 1 18.0 -22.6 964.79
18:02 64 25 1 17.9 -22.5 964.75
18:03 76 23 1 17.9 -22.4 964.82
18:04 69 30 1 17.9 -22.4 964.79
18:05 72 29 1 17.9 -22.5 964.69
18:06 76 26 1 17.8 -22.5 964.79
18:07 72 24 1 17.8 -22.5 964.96
18:08 72 25 1 17.8 -22.5 964.86
18:09 76 30 1 17.8 -22.4 964.89
18:10 77 19 1 17.8 -22.4 964.99
18:11 72 25 1 17.8 -22.3 965.06
18:12 81 25 1 17.7 -22.3 965.03
18:13 84 22 1 17.7 -22.4 964.96
18:14 81 21 1 17.7 -22.3 964.99
18:15 72 24 1 17.7 -22.3 965.06
18:16 73 23 1 17.7 -22.3 965.09
18:17 72 24 1 17.9 -22.2 964.96
18:18 71 27 1 18.1 -22.2 964.89
18:19 73 25 1 18.3 -22.2 964.96
18:20 75 25 1 18.5 -22.2 964.96
18:21 82 26 1 18.6 -22.1 964.89
18:22 86 24 1 18.5 -22.3 964.86
18:23 86 24 1 18.4 -22.2 964.99
18:24 86 23 1 18.4 -22.2 964.89
18:25 80 23 1 18.4 -22.2 964.92
18:26 81 22 1 18.3 -22.1 964.92
18:27 74 23 1 18.3 -22.1 964.96
18:28 76 28 1 18.3 -22.1 964.79
18:29 79 28 1 18.2 -22.1 964.89
18:30 75 28 1 18.2 -22.2 964.79
18:31 78 26 1 18.2 -22.2 964.89
18:32 83 27 1 18.2 -22.2 964.92
18:33 83 26 1 18.1 -22.3 964.86
18:34 73 27 1 18.1 -22.3 964.92
18:35 74 28 1 18.1 -22.2 964.96
18:36 81 26 1 18.1 -22.2 964.82
18:37 86 27 1 18.0 -22.2 964.82
18:38 79 27 1 18.0 -22.2 964.86
18:39 79 23 1 18.0 -22.2 964.96
18:40 86 25 1 17.9 -22.2 964.92
18:41 79 24 1 17.9 -22.2 964.89
18:42 83 24 1 17.9 -22.2 964.99
18:43 82 23 1 17.9 -22.2 964.99
18:44 90 18 1 17.9 -22.2 964.96
18:45 76 24 1 17.8 -22.2 964.92
18:46 77 26 1 17.8 -22.1 964.99
18:47 82 25 1 17.8 -22.1 964.82
18:48 75 24 1 17.8 -22.2 964.79
18:49 79 22 1 17.8 -22.1 965.13
18:50 74 25 1 17.7 -22.2 965.03
18:51 78 23 1 17.7 -22.2 965.09
18:52 74 21 1 17.7 -22.2 965.09
18:53 79 21 1 17.7 -22.2 965.20
18:54 74 23 1 17.8 -22.2 965.20
18:55 73 26 1 17.9 -22.2 965.16
18:56 74 23 1 18.2 -22.2 965.20
18:57 75 24 1 18.4 -22.2 964.99
18:58 79 24 1 18.6 -22.2 965.09
18:59 75 25 1 18.6 -22.2 965.03
19:00 80 24 1 18.6 -22.3 964.99
19:01 78 27 1 18.5 -22.2 965.09
19:02 79 25 1 18.4 -22.3 964.96
19:03 78 24 1 18.4 -22.3 964.99
19:04 81 25 1 18.3 -22.4 964.79
19:05 77 24 1 18.3 -22.4 964.89
19:06 80 27 1 18.3 -22.4 964.86
19:07 82 22 1 18.3 -22.4 964.75
19:08 77 22 1 18.2 -22.4 964.75
19:09 76 23 1 18.2 -22.4 964.86
19:10 74 27 1 18.2 -22.4 964.96
19:11 78 23 1 18.2 -22.4 964.89
19:12 78 23 1 18.1 -22.4 964.89
19:13 78 23 1 18.1 -22.4 965.13
19:14 71 26 1 18.1 -22.4 965.16
19:15 68 24 1 18.1 -22.4 965.13
19:16 70 27 1 18.0 -22.4 965.20
19:17 75 23 1 17.9 -22.4 965.23
19:18 70 23 1 17.9 -22.5 965.20
19:19 80 23 1 17.9 -22.6 965.09
19:20 72 23 1 17.9 -22.6 965.16
19:21 73 26 1 17.8 -22.6 965.13
19:22 87 18 1 17.8 -22.5 965.09
19:23 83 21 1 17.8 -22.4 965.20
19:24 71 22 1 17.8 -22.5 965.03
19:25 74 23 1 17.8 -22.4 965.06
19:26 78 22 1 17.7 -22.4 964.92
19:27 82 24 1 17.7 -22.4 965.09
19:28 75 21 1 17.7 -22.5 965.09
19:29 79 25 1 17.7 -22.4 965.09
19:30 76 20 1 17.7 -22.5 965.20
19:31 72 23 1 17.6 -22.5 965.16
19:32 72 23 1 17.7 -22.5 965.09
19:33 69 27 1 17.9 -22.5 965.16
19:34 91 23 1 18.2 -22.6 964.92
19:35 74 24 1 18.4 -22.5 965.06
19:36 67 27 1 18.4 -22.6 965.03
19:37 72 23 1 18.4 -22.6 965.09
19:38 70 23 1 18.4 -22.6 965.03
19:39 69 27 1 18.3 -22.7 964.89
19:40 64 28 1 18.3 -22.8 965.09
19:41 66 23 1 18.2 -22.6 965.26
19:42 69 23 1 18.2 -22.7 965.03
19:43 71 23 1 18.1 -22.6 965.03
19:44 65 24 1 18.1 -22.6 965.09
19:45 66 27 1 18.1 -22.8 965.13
19:46 72 25 1 18.0 -22.9 965.16
19:47 74 26 1 18.0 -22.8 965.09
19:48 65 26 1 17.9 -22.8 965.06
19:49 61 23 1 17.9 -22.9 965.23
19:50 61 24 1 17.9 -22.9 965.03
19:51 64 26 1 17.8 -22.9 965.13
19:52 80 24 1 17.8 -22.9 965.20
19:53 74 21 1 17.7 -22.9 965.33
19:54 95 24 1 17.7 -23.0 965.09
19:55 89 26 1 17.7 -22.6 965.16
19:56 66 23 1 17.7 -22.8 965.26
19:57 67 24 1 17.6 -22.9 965.06
19:58 82 26 1 17.6 -22.9 965.03
19:59 72 23 1 17.6 -22.9 965.16
20:00 79 24 1 17.6 -22.9 965.16
20:01 72 26 1 17.5 -23.0 964.99
20:02 82 27 1 17.5 -23.2 964.92
20:03 79 24 1 17.5 -23.1 965.03
20:04 75 30 1 17.4 -23.0 965.13
20:05 77 26 1 17.4 -22.7 965.16
20:06 76 26 1 17.4 -22.8 965.23
20:07 76 23 1 17.4 -22.9 965.26
20:08 66 24 1 17.5 -22.9 965.30
20:09 58 25 1 17.7 -22.8 965.23
20:10 69 21 1 17.9 -22.8 965.09
20:11 78 22 1 18.2 -22.8 965.16
20:12 69 22 1 18.4 -22.9 965.16
20:13 71 27 1 18.4 -22.8 964.96
20:14 75 20 1 18.4 -22.8 965.13
20:15 76 22 1 18.3 -22.9 965.13
20:16 71 19 1 18.3 -23.1 965.36
20:17 75 23 1 18.2 -22.9 965.23
20:18 80 23 1 18.2 -22.9 965.20
20:19 84 19 1 18.1 -23.1 965.16
20:20 82 20 1 18.1 -23.0 965.23
20:21 75 23 1 18.1 -22.9 965.30
20:22 73 22 1 18.0 -23.0 965.23
20:23 94 19 1 17.9 -23.1 965.30
20:24 88 22 1 17.9 -23.2 965.09
20:25 105 28 1 17.9 -23.1 965.16
20:26 110 25 1 17.9 -22.9 965.20
20:27 98 30 1 17.9 -22.9 964.99
20:28 104 30 1 17.8 -23.1 965.09
20:29 100 26 1 17.8 -22.9 964.99
20:30 102 23 1 17.8 -22.8 965.20
20:31 101 28 1 17.8 -23.1 965.13
20:32 91 23 1 17.7 -23.1 965.20
20:33 88 23 1 17.7 -23.1 965.36
20:34 80 23 1 17.7 -23.1 965.33
20:35 75 23 1 17.6 -23.0 965.26
20:36 80 23 1 17.6 -22.9 964.99
20:37 74 30 1 17.6 -22.9 964.99
20:38 77 23 1 17.6 -23.0 965.09
20:39 78 28 1 17.5 -23.1 965.13
20:40 76 22 1 17.5 -23.1 965.23
20:41 79 23 1 17.4 -22.9 965.23
20:42 75 22 1 17.4 -22.9 965.36
20:43 73 24 1 17.4 -22.9 965.33
20:44 77 24 1 17.4 -22.9 965.47
20:45 78 22 1 17.5 -22.8 965.36
20:46 82 28 1 17.6 -22.8 965.40
20:47 86 25 1 17.9 -22.8 965.47
20:48 80 25 1 18.2 -22.8 965.23
20:49 78 25 1 18.3 -22.7 965.33
20:50 73 26 1 18.3 -22.7 965.36
20:51 77 28 1 18.2 -22.7 965.30
20:52 75 26 1 18.2 -22.7 965.40
20:53 74 24 1 18.1 -22.7 965.47
20:54 78 23 1 18.1 -22.7 965.36
20:55 84 24 1 18.1 -22.6 965.60
20:56 82 24 1 18.0 -22.6 965.53
20:57 75 25 1 17.9 -22.6 965.50
20:58 78 24 1 17.9 -22.6 965.47
20:59 83 26 1 17.9 -22.6 965.40
21:00 81 25 1 17.8 -22.6 965.43
21:01 74 25 1 17.8 -22.6 965.43
21:02 85 21 1 17.8 -22.6 965.33
21:03 92 26 1 17.8 -22.6 965.16
21:04 88 25 1 17.8 -22.6 965.26
21:05 82 26 1 17.7 -22.6 965.26
21:06 84 24 1 17.7 -22.6 965.16
21:07 84 23 1 17.7 -22.6 965.23
21:08 81 25 1 17.6 -22.7 965.40
21:09 73 25 1 17.6 -22.6 965.30
21:10 73 24 1 17.6 -22.6 965.33
21:11 81 23 1 17.6 -22.6 965.03
21:12 78 28 1 17.5 -22.7 965.06
21:13 81 23 1 17.5 -22.7 965.06
21:14 79 24 1 17.4 -22.7 965.16
21:15 83 25 1 17.4 -22.7 965.16
21:16 81 25 1 17.4 -22.7 965.26
21:17 73 29 1 17.4 -22.7 965.26
21:18 71 29 1 17.3 -22.7 965.33
21:19 75 25 1 17.3 -22.7 965.09
21:20 73 28 1 17.3 -22.7 965.09
21:21 75 27 1 17.4 -22.7 965.16
21:22 74 28 1 17.6 -22.8 965.06
21:23 80 25 1 17.8 -22.8 965.23
21:24 83 23 1 18.1 -22.7 965.09
21:25 79 28 1 18.2 -22.7 965.13
21:26 81 30 1 18.2 -22.7 965.13
21:27 83 24 1 18.2 -22.7 965.20
21:28 80 25 1 18.2 -22.7 965.20
21:29 78 25 1 18.1 -22.7 965.26
21:30 79 28 1 18.1 -22.7 965.30
21:31 79 27 1 18.0 -22.7 965.26
21:32 76 23 1 17.9 -22.7 965.26
21:33 79 24 1 17.9 -22.7 965.36
21:34 86 24 1 17.9 -22.7 965.36
21:35 86 21 1 17.8 -22.7 965.33
21:36 80 24 1 17.8 -22.8 965.43
21:37 77 26 1 17.8 -22.8 965.47
21:38 78 21 1 17.7 -22.8 965.53
21:39 78 23 1 17.7 -22.8 965.67
21:40 77 23 1 17.7 -22.8 965.64
21:41 75 23 1 17.7 -22.8 965.67
21:42 78 23 1 17.6 -22.8 965.67
21:43 78 23 1 17.6 -22.8 965.74
21:44 84 21 1 17.6 -22.8 965.77
21:45 81 21 1 17.5 -22.8 965.87
21:46 73 24 1 17.5 -22.8 965.87
21:47 69 24 1 17.5 -22.8 965.80
21:48 71 24 1 17.4 -22.8 965.74
21:49 71 24 1 17.4 -22.8 965.53
21:50 76 23 1 17.4 -22.9 965.77
21:51 72 21 1 17.3 -22.8 965.77
21:52 78 21 1 17.3 -22.8 965.64
21:53 83 22 1 17.3 -22.8 965.74
21:54 74 23 1 17.3 -22.8 965.70
21:55 70 24 1 17.3 -22.9 965.70
21:56 68 25 1 17.3 -22.9 965.67
21:57 70 22 1 17.3 -22.9 965.70
21:58 69 27 1 17.5 -22.9 965.67
21:59 70 22 1 17.8 -22.9 965.53
22:00 71 25 1 18.1 -22.9 965.50
22:01 74 23 1 18.2 -23.0 965.64
22:02 70 23 1 18.2 -23.0 965.60
22:03 67 23 1 18.1 -23.1 965.64
22:04 73 21 1 18.1 -23.1 965.84
22:05 66 23 1 18.0 -23.1 965.87
22:06 68 22 1 17.9 -23.1 965.67
22:07 75 26 1 17.8 -23.1 965.77
22:08 72 21 1 17.8 -23.1 965.84
22:09 72 23 1 17.8 -23.1 965.74
22:10 68 24 1 17.7 -23.1 965.80
22:11 74 22 1 17.7 -23.1 965.87
22:12 67 24 1 17.6 -23.1 965.91
22:13 70 24 1 17.6 -23.1 965.87
22:14 67 22 1 17.6 -23.2 965.91
22:15 69 20 1 17.5 -23.2 965.91
22:16 71 21 1 17.5 -23.2 965.97
22:17 73 24 1 17.4 -23.2 965.94
22:18 72 23 1 17.4 -23.2 965.91
22:19 70 23 1 17.4 -23.2 965.91
22:20 69 23 1 17.3 -23.3 965.84
22:21 67 21 1 17.3 -23.3 965.91
22:22 67 24 1 17.3 -23.3 965.80
22:23 70 24 1 17.2 -23.3 965.84
22:24 70 23 1 17.2 -23.4 965.77
22:25 69 24 1 17.2 -23.4 965.74
22:26 70 25 1 17.1 -23.5 965.74
22:27 71 25 1 17.1 -23.5 966.01
22:28 67 23 1 17.1 -23.5 965.80
22:29 62 23 1 17.0 -23.5 965.94
22:30 68 23 1 17.0 -23.5 965.97
22:31 69 22 1 17.1 -23.5 965.91
22:32 65 22 1 17.2 -23.5 965.91
22:33 65 23 1 17.4 -23.6 965.91
22:34 68 23 1 17.6 -23.6 965.84
22:35 71 22 1 17.9 -23.6 965.74
22:36 73 24 1 17.9 -23.6 965.84
22:37 72 23 1 17.9 -23.6 965.91
22:38 77 21 1 17.8 -23.7 965.87
22:39 76 23 1 17.8 -23.6 966.01
22:40 77 23 1 17.7 -23.7 965.91
22:41 71 24 1 17.7 -23.6 966.01
22:42 70 23 1 17.6 -23.7 965.91
22:43 72 23 1 17.6 -23.7 965.91
22:44 75 25 1 17.6 -23.7 965.80
22:45 76 23 1 17.5 -23.8 966.01
22:46 74 27 1 17.4 -23.8 965.87
22:47 74 24 1 17.4 -23.9 965.91
22:48 69 26 1 17.4 -23.8 965.91
22:49 68 23 1 17.3 -23.9 965.84
22:50 69 23 1 17.3 -23.9 965.97
22:51 73 21 1 17.3 -23.9 966.04
22:52 70 21 1 17.3 -24.0 966.08
22:53 69 23 1 17.2 -23.9 966.04
22:54 70 24 1 17.2 -23.9 965.94
22:55 68 23 1 17.2 -23.9 966.11
22:56 70 24 1 17.1 -23.9 966.21
22:57 70 23 1 17.1 -23.9 966.28
22:58 72 23 1 17.1 -23.9 966.31
22:59 78 20 1 17.0 -23.8 966.28
23:00 74 23 1 17.0 -23.8 966.31
23:01 66 19 1 16.9 -23.9 966.38
23:02 70 22 1 16.9 -23.8 966.48
23:03 74 18 1 16.9 -23.9 966.52
23:04 78 18 1 16.9 -24.0 966.52
23:05 78 19 1 16.9 -24.1 966.41
23:06 81 22 1 17.1 -24.1 966.52
23:07 78 20 1 17.3 -24.1 966.45
23:08 77 21 1 17.6 -24.1 966.38
23:09 79 20 1 17.8 -24.2 966.52
23:10 80 20 1 17.9 -24.2 966.55
23:11 86 19 1 17.8 -24.2 966.58
23:12 92 17 1 17.8 -24.2 966.48
23:13 86 17 1 17.7 -24.2 966.69
23:14 78 23 1 17.7 -24.2 966.62
23:15 79 20 1 17.6 -24.3 966.62
23:16 73 20 1 17.6 -24.3 966.65
23:17 70 17 1 17.6 -24.3 966.75
23:18 73 20 1 17.5 -24.3 966.69
23:19 71 22 1 17.5 -24.4 966.72
23:20 70 21 1 17.4 -24.4 966.69
23:21 73 20 1 17.4 -24.4 966.82
23:22 74 23 1 17.3 -24.4 966.89
23:23 73 23 1 17.3 -24.5 966.65
23:24 67 22 1 17.3 -24.6 966.65
23:25 66 25 1 17.3 -24.6 966.55
23:26 66 22 1 17.2 -24.6 966.48
23:27 64 20 1 17.2 -24.6 966.52
23:28 70 20 1 17.2 -24.6 966.55
23:29 72 19 1 17.1 -24.6 966.45
23:30 72 23 1 17.1 -24.6 966.41
23:31 72 23 1 17.1 -24.6 966.52
23:32 73 23 1 17.0 -24.6 966.62
23:33 70 21 1 17.0 -24.6 966.52
23:34 73 20 1 16.9 -24.6 966.62
23:35 75 20 1 16.9 -24.6 966.55
23:36 76 20 1 16.9 -24.7 966.48
23:37 80 17 1 16.8 -24.6 966.52
23:38 83 18 1 16.8 -24.6 966.48
23:39 79 20 1 16.9 -24.6 966.55
23:40 72 20 1 17.0 -24.6 966.48
23:41 68 23 1 17.2 -24.7 966.45
23:42 66 20 1 17.5 -24.7 966.28
23:43 75 19 1 17.8 -24.7 966.38
23:44 71 17 1 17.8 -24.6 966.45
23:45 65 20 1 17.8 -24.7 966.52
23:46 66 17 1 17.8 -24.5 966.48
23:47 67 21 1 17.7 -24.6 966.38
23:48 69 18 1 17.6 -24.6 966.41
23:49 71 20 1 17.6 -24.6 966.38
23:50 64 20 1 17.5 -24.6 966.35
23:51 63 19 1 17.4 -24.7 966.48
23:52 60 20 1 17.4 -24.7 966.41
23:53 62 20 1 17.3 -24.7 966.48
23:54 66 18 1 17.3 -24.7 966.62
23:55 68 17 1 17.3 -24.7 966.69
23:56 74 17 1 17.2 -24.7 966.72
23:57 71 18 1 17.2 -24.7 966.65
23:58 70 19 1 17.2 -24.7 966.69
23:59 74 18 1 17.1 -24.6 966.75


